Location: Balaclava NSW 2575, Australia
(34.4510°S, 150.4953°E)
Time: 22:05:25
(UTC+10:00)

XW-2C - Pass Details

Date: 04 August 2021
Orbit: 505 x 524 km, 97.5° (Epoch: 26 September)

Event Time Altitude Azimuth Distance (km) Brightness Sun altitude
Rises 05:31:55 0° 360° (N) 2,648 ? -16.2°
Reaches altitude 10° 05:34:03 10° 354° (N) 1,769 ? -15.7°
Maximum altitude 05:37:44 46° 279° (W) 723 ? -15.0°
Drops below altitude 10° 05:41:28 10° 205° (SSW) 1,792 ? -14.2°
Enters shadow 05:41:32 10° 205° (SSW) 1,816 ? -14.2°
